Hourly Data Report for September 21, 2017

All times are specified in Local Standard Time (LST). Add 1 hour to adjust for Daylight Saving Time where and when it is observed.

ALGONQUIN PARK EAST GATE
ONTARIO

45°32'00.000" N
78°16'00.000" W
397.00 m
6080192
71581
TNK

Download Data

Hourly Data (September 2017)
Hourly Data Report for September 21, 2017
Temp Definition
°C
Dew Point Temp Definition
°C
Rel Hum Definition
%
Wind Dir Definition
10's deg

Wind Spd Definition
km/h
Visibility Definition
km
Stn Press Definition
kPa
Hmdx Definition


Wind Chill Definition


Weather Definition


TIME
00:00 14.7 13.5 92 0 1   97.21     LegendNANA
01:00 14.2 13.0 93   0   97.27     LegendNANA
02:00 14.0 12.9 93 12 2   97.30     LegendNANA
03:00 13.7 12.6 93   0   97.33     LegendNANA
04:00 13.7 12.7 94 0 1   97.30     LegendNANA
05:00 13.5 12.6 94 11 1   97.37     LegendNANA
06:00 13.4 12.5 94   0   97.36     LegendNANA
07:00 13.8 12.8 94   0   97.39     LegendNANA
08:00 16.2 15.1 94 25 1   97.42     LegendNANA
09:00 19.9 16.6 81 0 1   97.37     LegendNANA
10:00 23.2 18.4 74 16 5   97.30 30   LegendNANA
11:00 24.6 16.9 62 17 7   97.30 30   LegendNANA
12:00 25.8 16.2 55 17 5   97.32 31   LegendNANA
13:00 26.2 15.8 53 24 3   97.30 31   LegendNANA
14:00 25.5 17.4 61 29 2   97.31 31   LegendNANA
15:00 26.4 14.9 49 24 4   97.29 30   LegendNANA
16:00 26.0 15.0 51 25 3   97.30 30   LegendNANA
17:00 23.2 17.7 72   0   97.30 29   LegendNANA
18:00 21.2 17.5 79   0   97.31 27   LegendNANA
19:00 19.7 17.3 86 9 1   97.35     LegendNANA
20:00 18.3 16.4 89   0   97.37     LegendNANA
21:00 17.2 15.6 90   0   97.38     LegendNANA
22:00 16.3 14.7 90 0 1   97.41     LegendNANA
23:00 15.9 14.4 91   0   97.43     LegendNANA

Notes on Data Quality.

Legend

  • E = Estimated
  • M = Missing
  • NA = Not Available
  • ‡ = Partner data that is not subject to review by the National Climate Archives
Date modified: